Terug naar catalogus

CZ-6A DEB

ActiefPO
NORAD 56283·DEBRIS·🇨🇳 China

Gelanceerd Nov 11, 2022 vanaf Taiyuan Satellite Launch Center

Loading…

Volgende Passages (komende 24 uur)

TLE

VersSource: Space-Track

Epoch: Sep 14, 2026, 03:02 UTC

1 56283U 22151ADB 26257.12665051  .00017555  00000-0  21586-2 0  9990
2 56283  98.5747 315.7837 0048680  19.8015 340.5071 14.82229066185251

Volg CZ-6A DEB in realtime met AllMySat

Download on the App Store